Oakes, ND

10:34 AM CST on February 21, 2017 (GMT -0600)
Oakes

Weather History for K2D5 - February, 2013

Change the Weather History Date:

Monday, February 11, 2013

  Actual Average (KP67) Record (KP67)
Temperature  
Mean Temperature 18 °F -  
Max Temperature 23 °F 23 °F 33 °F (1998)
Min Temperature 12 °F 7 °F 0 °F (1997)
Degree Days  
Heating Degree Days 48    
Moisture  
Dew Point 18 °F    
Average Humidity 96    
Maximum Humidity 100    
Minimum Humidity 86    
Precipitation  
Precipitation 1.33 in - - ()
Sea Level Pressure  
Sea Level Pressure 29.93 in    
Wind  
Wind Speed 22 mph (WNW)    
Max Wind Speed 32 mph    
Max Gust Speed 41 mph    
Visibility 7 miles    
Events Rain , Snow    
Averages and records for this station are not official NWS values.
T = Trace of Precipitation, MM = Missing Value Source: NWS Daily Summary

Daily Weather History Graph

Daily Weather History Graph

Search for Another Location

Airport or City:

Trip Planner

Search our weather history database for the weather conditions in past years. The results will help you decide how hot, cold, wet, or windy it might be!

Date:

Astronomy

Feb. 11, 2013 Rise Set
Actual Time 7:40 AM CST 5:52 PM CST
Civil Twilight 7:09 AM CST 6:23 PM CST
Nautical Twilight 6:34 AM CST 6:59 PM CST
Astronomical Twilight 5:59 AM CST 7:34 PM CST
Moon 7:58 AM CST (2/11) 8:01 PM CST (2/11)
Length of Visible Light 11h 14m
Length of Day
10h 11m
Waxing Crescent, 3% of the Moon is Illuminated
Feb 11
Waxing Crescent
Feb 17
First Quarter
Feb 25
Full
Mar 4
Last Quarter
Mar 11
New

Hourly Weather History & Observations

Time (CST) Temp. Windchill Dew Point Humidity Pressure Visibility Wind Dir Wind Speed Gust Speed Precip Events Conditions
12:15 AM 23.0 °F 5.4 °F 23.0 °F 100% 29.74 in 1.0 mi NW 29.9 mph 35.7 mph N/A   Mist
12:35 AM 23.0 °F 4.9 °F 23.0 °F 100% 29.75 in 1.0 mi NW 32.2 mph 36.8 mph N/A   Mist
12:55 AM 21.2 °F 2.7 °F 21.2 °F 100% 29.76 in 1.0 mi NW 31.1 mph 36.8 mph N/A   Mist
1:15 AM 21.2 °F 3.5 °F 21.2 °F 100% 29.77 in 1.2 mi NW 27.6 mph 34.5 mph N/A   Mist
1:35 AM 21.2 °F 3.0 °F 21.2 °F 100% 29.78 in 1.0 mi NW 29.9 mph 35.7 mph N/A   Overcast
2:15 AM 19.4 °F 1.4 °F 19.4 °F 100% 29.80 in 3.0 mi NW 26.5 mph 33.4 mph N/A   Mist
2:35 AM 19.4 °F 1.4 °F 19.4 °F 100% 29.80 in 2.0 mi NW 26.5 mph 32.2 mph N/A   Mist
2:55 AM 19.4 °F 1.1 °F 19.4 °F 100% 29.81 in 3.0 mi NW 27.6 mph 33.4 mph N/A   Mist
3:15 AM 19.4 °F 0.5 °F 19.4 °F 100% 29.82 in 2.0 mi NW 29.9 mph 38.0 mph N/A   Mist
3:35 AM 19.4 °F 1.4 °F 19.4 °F 100% 29.83 in 3.0 mi NW 26.5 mph 36.8 mph N/A   Mist
3:55 AM 19.4 °F 0.5 °F 19.4 °F 100% 29.83 in 3.0 mi NW 29.9 mph 39.1 mph N/A   Mist
4:15 AM 19.4 °F 0.2 °F 19.4 °F 100% 29.83 in 2.0 mi NW 31.1 mph 39.1 mph N/A   Mist
4:35 AM 19.4 °F 1.4 °F 19.4 °F 100% 29.84 in 3.0 mi NW 26.5 mph 33.4 mph N/A   Mist
5:15 AM 19.4 °F 1.1 °F 19.4 °F 100% 29.85 in 3.0 mi NNW 27.6 mph 36.8 mph N/A   Mist
5:55 AM 19.4 °F 0.8 °F 19.4 °F 100% 29.87 in 5.0 mi NW 28.8 mph 32.2 mph N/A   Mist
6:15 AM 17.6 °F 0.1 °F 17.6 °F 100% 29.88 in 3.0 mi NW 23.0 mph 32.2 mph N/A   Overcast
6:35 AM 17.6 °F 0.5 °F 17.6 °F 100% 29.89 in 5.0 mi NW 21.9 mph - N/A Snow Light Snow
6:55 AM 17.6 °F -1.3 °F 17.6 °F 100% 29.90 in 4.0 mi NNW 27.6 mph 32.2 mph 0.31 in Snow Light Snow
7:15 AM 17.6 °F -1.0 °F 17.6 °F 100% 29.91 in 4.0 mi NW 26.5 mph - 0.09 in Snow Light Snow
7:35 AM 17.6 °F -1.6 °F 17.6 °F 100% 29.91 in 3.0 mi NW 28.8 mph - 0.32 in Snow Light Snow
7:55 AM 17.6 °F -1.3 °F 17.6 °F 100% 29.92 in 2.0 mi NNW 27.6 mph 35.7 mph 0.42 in Snow Light Snow
8:15 AM 17.6 °F -1.9 °F 17.6 °F 100% 29.93 in 1.5 mi NNW 29.9 mph 41.4 mph 0.03 in Snow Light Snow
8:35 AM 17.6 °F -0.6 °F 17.6 °F 100% 29.94 in 2.5 mi NNW 25.3 mph 33.4 mph 0.07 in Snow Light Snow
8:55 AM 17.6 °F 0.1 °F 17.6 °F 100% 29.95 in 5.0 mi NNW 23.0 mph 31.1 mph 0.15 in Snow Light Snow
9:15 AM 17.6 °F 0.1 °F 17.6 °F 100% 29.96 in 6.0 mi NW 23.0 mph 26.5 mph 0.02 in Snow Light Snow
9:35 AM 17.6 °F 1.7 °F 17.6 °F 100% 29.97 in 5.0 mi NW 18.4 mph 23.0 mph 0.10 in Snow Light Snow
9:55 AM 17.6 °F 3.2 °F 17.6 °F 100% 29.97 in 7.0 mi WNW 15.0 mph - 0.15 in Snow Light Snow
10:15 AM 17.6 °F 2.2 °F 17.6 °F 100% 29.98 in 4.0 mi NW 17.3 mph 21.9 mph 0.04 in Snow Light Snow
10:35 AM 19.4 °F 5.0 °F 17.6 °F 93% 29.98 in 4.0 mi NW 16.1 mph - 0.11 in Snow Light Snow
10:55 AM 19.4 °F 5.0 °F 17.6 °F 93% 29.99 in 3.0 mi NW 16.1 mph - 0.19 in Snow Light Snow
11:15 AM 19.4 °F 5.0 °F 17.6 °F 93% 30.00 in 5.0 mi NW 16.1 mph 20.7 mph 0.02 in Snow Light Snow
11:35 AM 19.4 °F 5.5 °F 17.6 °F 93% 30.00 in 7.0 mi WNW 15.0 mph - 0.06 in Snow Light Snow
11:55 AM 19.4 °F 5.0 °F 17.6 °F 93% 30.01 in 5.0 mi WNW 16.1 mph - 0.09 in Snow Light Snow
12:15 PM 19.4 °F 6.6 °F 17.6 °F 93% 30.01 in 9.0 mi WNW 12.7 mph - 0.01 in Snow Light Snow
12:35 PM 19.4 °F 5.5 °F 17.6 °F 93% 30.01 in 10.0 mi WNW 15.0 mph - 0.01 in Rain Light Freezing Rain
12:55 PM 19.4 °F 5.0 °F 17.6 °F 93% 30.00 in 10.0 mi WNW 16.1 mph - 0.01 in Rain Light Freezing Rain
1:15 PM 21.2 °F 8.3 °F 17.6 °F 86% 30.00 in 10.0 mi WNW 13.8 mph - N/A Rain Light Freezing Rain
1:35 PM 21.2 °F 8.3 °F 17.6 °F 86% 30.00 in 10.0 mi WNW 13.8 mph 18.4 mph N/A Rain Light Freezing Rain
1:55 PM 21.2 °F 7.8 °F 17.6 °F 86% 30.00 in 10.0 mi WNW 15.0 mph - N/A Rain Light Freezing Rain
2:15 PM 19.4 °F 4.1 °F 17.6 °F 93% 30.00 in 10.0 mi WNW 18.4 mph - N/A Rain Light Freezing Rain
2:35 PM 19.4 °F 4.1 °F 17.6 °F 93% 30.00 in 10.0 mi WNW 18.4 mph - N/A Rain Light Freezing Rain
2:55 PM 19.4 °F 4.5 °F 17.6 °F 93% 30.00 in 10.0 mi WNW 17.3 mph 21.9 mph 0.01 in Rain Light Freezing Rain
3:15 PM 19.4 °F 5.0 °F 17.6 °F 93% 30.00 in 10.0 mi West 16.1 mph - N/A Rain Light Freezing Rain
3:35 PM 19.4 °F 6.6 °F 15.8 °F 86% 30.00 in 10.0 mi WNW 12.7 mph - N/A Rain Light Freezing Rain
3:55 PM 19.4 °F 6.0 °F 15.8 °F 86% 30.00 in 10.0 mi WNW 13.8 mph - N/A Rain Light Freezing Rain
4:55 PM 19.4 °F 7.2 °F 15.8 °F 86% 30.00 in 10.0 mi WNW 11.5 mph - N/A Rain Light Freezing Rain
5:15 PM 19.4 °F 10.4 °F 15.8 °F 86% 30.00 in 10.0 mi WNW 6.9 mph - N/A Rain Light Freezing Rain
5:35 PM 19.4 °F 11.5 °F 17.6 °F 93% 29.99 in 10.0 mi West 5.8 mph - N/A Snow Light Snow
5:55 PM 19.4 °F 12.8 °F 17.6 °F 93% 29.99 in 10.0 mi West 4.6 mph - N/A   Unknown
6:15 PM 19.4 °F 12.8 °F 17.6 °F 93% 29.99 in 10.0 mi WSW 4.6 mph - N/A   Unknown
6:35 PM 19.4 °F 12.8 °F 17.6 °F 93% 29.99 in 10.0 mi SSW 4.6 mph - N/A   Unknown
6:55 PM 19.4 °F 10.4 °F 17.6 °F 93% 29.99 in 10.0 mi SW 6.9 mph - N/A   Unknown
7:15 PM 21.2 °F 9.5 °F 17.6 °F 86% 29.99 in 10.0 mi West 11.5 mph - N/A   Unknown
7:35 PM 21.2 °F 12.6 °F 17.6 °F 86% 29.98 in 10.0 mi WSW 6.9 mph - N/A   Unknown
7:55 PM 21.2 °F 11.7 °F 19.4 °F 93% 29.98 in 10.0 mi West 8.1 mph - N/A   Unknown
8:15 PM 21.2 °F 12.6 °F 19.4 °F 93% 29.98 in 10.0 mi WSW 6.9 mph - N/A   Unknown
8:35 PM 21.2 °F 13.6 °F 19.4 °F 93% 29.97 in 10.0 mi SW 5.8 mph - N/A   Unknown
8:55 PM 21.2 °F 12.6 °F 19.4 °F 93% 29.97 in 10.0 mi SW 6.9 mph - N/A   Unknown
9:15 PM 19.4 °F 10.4 °F 17.6 °F 93% 29.97 in 10.0 mi SSW 6.9 mph - N/A   Unknown
9:35 PM 15.8 °F 4.2 °F 15.8 °F 100% 29.96 in 10.0 mi SSW 9.2 mph - N/A   Unknown
9:55 PM 15.8 °F 1.4 °F 15.8 °F 100% 29.96 in 10.0 mi South 13.8 mph - N/A   Unknown
10:15 PM 15.8 °F 2.1 °F 15.8 °F 100% 29.96 in 10.0 mi SSW 12.7 mph - N/A   Unknown
10:35 PM 14.0 °F -0.2 °F 14.0 °F 100% 29.95 in 10.0 mi SSW 12.7 mph - N/A   Unknown
10:55 PM 12.2 °F -1.0 °F 12.2 °F 100% 29.94 in 10.0 mi SSW 10.4 mph - N/A   Unknown
11:15 PM 12.2 °F -2.5 °F 12.2 °F 100% 29.93 in 10.0 mi SSW 12.7 mph - N/A   Unknown
11:35 PM 12.2 °F -2.5 °F 12.2 °F 100% 29.93 in 10.0 mi SSW 12.7 mph - N/A   Unknown
11:55 PM 14.0 °F -2.5 °F 14.0 °F 100% 29.91 in 6.0 mi SSW 17.3 mph - N/A   Mist